TimeCST,TemperatureF,Dew PointF,Humidity,Sea Level PressureIn,VisibilityMPH,Wind Direction,Wind SpeedMPH,Gust SpeedMPH,PrecipitationIn,Events,Conditions,WindDirDegrees,DateUTC
12:53 AM,15.1,6.1,68,30.32,10.0,WNW,5.8,-,N/A,,Clear,290,2013-12-10 06:53:00
1:53 AM,15.1,7.0,70,30.31,10.0,West,6.9,-,N/A,,Clear,270,2013-12-10 07:53:00
2:53 AM,12.9,6.1,74,30.33,10.0,WNW,6.9,-,N/A,,Clear,290,2013-12-10 08:53:00
3:53 AM,12.0,5.0,73,30.30,10.0,Calm,Calm,-,N/A,,Clear,0,2013-12-10 09:53:00
4:53 AM,14.0,5.0,67,30.32,10.0,West,4.6,-,N/A,,Clear,280,2013-12-10 10:53:00
5:53 AM,14.0,5.0,67,30.29,10.0,Calm,Calm,-,N/A,,Clear,0,2013-12-10 11:53:00
6:53 AM,16.0,3.0,57,30.29,10.0,SW,3.5,-,N/A,,Clear,230,2013-12-10 12:53:00
7:53 AM,17.1,3.0,54,30.29,10.0,Calm,Calm,-,N/A,,Clear,0,2013-12-10 13:53:00
8:53 AM,21.0,5.0,50,30.31,10.0,WSW,6.9,-,N/A,,Clear,240,2013-12-10 14:53:00
9:53 AM,24.1,7.0,48,30.33,10.0,West,13.8,-,N/A,,Clear,280,2013-12-10 15:53:00
10:53 AM,28.0,9.0,45,30.33,10.0,West,11.5,-,N/A,,Clear,270,2013-12-10 16:53:00
11:53 AM,30.9,10.0,42,30.32,10.0,SW,11.5,-,N/A,,Clear,230,2013-12-10 17:53:00
12:53 PM,35.1,10.9,37,30.30,10.0,West,9.2,-,N/A,,Clear,270,2013-12-10 18:53:00
1:53 PM,37.0,10.9,34,30.28,10.0,SW,6.9,-,N/A,,Clear,230,2013-12-10 19:53:00
3:53 PM,37.0,10.9,34,30.25,10.0,SW,5.8,-,N/A,,Clear,230,2013-12-10 21:53:00
4:53 PM,36.0,12.0,37,30.25,10.0,SSW,4.6,-,N/A,,Clear,210,2013-12-10 22:53:00
5:53 PM,32.0,12.9,45,30.27,10.0,Calm,Calm,-,N/A,,Clear,0,2013-12-10 23:53:00
6:53 PM,30.9,12.9,47,30.28,10.0,SE,3.5,-,N/A,,Clear,140,2013-12-11 00:53:00
7:53 PM,28.9,12.9,51,30.29,10.0,Calm,Calm,-,N/A,,Clear,0,2013-12-11 01:53:00
8:53 PM,27.0,12.9,56,30.29,10.0,Calm,Calm,-,N/A,,Clear,0,2013-12-11 02:53:00
9:53 PM,26.1,12.9,58,30.30,10.0,SE,3.5,-,N/A,,Clear,140,2013-12-11 03:53:00
10:53 PM,23.0,12.9,65,30.31,10.0,Calm,Calm,-,N/A,,Clear,0,2013-12-11 04:53:00
11:53 PM,18.0,10.0,71,30.30,10.0,SE,3.5,-,N/A,,Clear,130,2013-12-11 05:53:00